Skip Page Navigation
NASA JPL Caltech
NASA Logo - Jet Propulsion Laboratory + View the NASA Portal
+ Center for Near-Earth Object Studies
JPL Home Earth Solar System Stars & Galaxies Technology
JPL Solar System Dynamics
BODIES ORBITS EPHEMERIDES TOOLS PHYSICAL DATA DISCOVERY FAQ SITE MAP
JPL Small-Body Database Browser
Search: [ help ]  
434805 (2006 RO75)
Classification: Main-belt Asteroid          SPK-ID: 2434805
Ephemeris | Orbit Diagram | Orbital Elements | Mission Design | Physical Parameters | Discovery Circumstances ]

[ show orbit diagram ]
Orbital Elements at Epoch 2459000.5 (2020-May-31.0) TDB
Reference: JPL 11 (heliocentric ecliptic J2000)
 Element Value Uncertainty (1-sigma)   Units 
e .0717498305914763 8.1825e-08  
a 2.18705115683347 1.4286e-08 au
q 2.030130606835776 1.7573e-07 au
i 5.48264175023752 1.1936e-05 deg
node 177.4951619229156 8.8994e-05 deg
peri 92.07138300426183 0.00012954 deg
M 170.9808657083707 9.1458e-05 deg
tp 2458439.410876393866
(2018-Nov-16.91087639)
0.00030083 TDB
period 1181.372451597777
3.23
1.1575e-05
3.169e-08
d
yr
n .3047303155860025 2.9858e-09 deg/d
Q 2.343971706831164 1.5311e-08 au
  Orbit Determination Parameters
   # obs. used (total)      110  
   data-arc span      9529 days (26.09 yr)  
   first obs. used      1993-09-20  
   last obs. used      2019-10-23  
   planetary ephem.      DE431  
   SB-pert. ephem.      SB431-N16  
   condition code      0  
   norm. resid. RMS      .63898  
   source      ORB  
   producer      Otto Matic  
   solution date      2019-Nov-08 15:41:26  

Additional Information
 Earth MOID = 1.0232 au 
 Jupiter MOID = 2.70068 au 
 T_jup = 3.667 
[ show covariance matrix ]

Ephemeris | Orbit Diagram | Orbital Elements | Mission Design | Physical Parameters | Discovery Circumstances ]

Physical Parameter Table
Parameter Symbol Value Units Sigma Reference Notes
absolute magnitude H 18.2   n/a MPO440803  

434805 (2006 RO75)          Discovered 2006-Sep-15 by Spacewatch at Kitt Peak
Reference: Last Updated: 2015-06-04

Alternate Designations
 2006 RO75 = 2005 ES217 = 2005 GT14 
Ephemeris | Orbit Diagram | Orbital Elements | Mission Design | Physical Parameters | Discovery Circumstances ]
ABOUT SSD CREDITS/AWARDS PRIVACY/COPYRIGHT GLOSSARY LINKS
FirstGov 2020-Jul-04 06:43 UT
(server date/time)  
NASA Home Page
Site Manager:   Ryan S. Park
Webmaster  Alan B. Chamberlin